KK7N Weather Reports


time (UTC)temp
F
wind
direction
speed
knots
gust
knots
rain 1hr
in
rain 24hr
in
rain mn
in
humidity
%
barometer
mb
20260901224559 70 292 1.7 5.2 0.00 0.00 0.00 56 1011.3
20260901223057 69 284 2.6 4.3 0.00 0.00 0.00 57 1011.4
20260901221554 69 210 1.7 7.0 0.00 0.00 0.00 56 1011.3
20260901220059 69 227 0.9 5.2 0.00 0.00 0.00 57 1011.4
20260901214559 69 263 3.5 7.8 0.00 0.00 0.00 57 1011.4
20260901213100 68 293 4.3 7.8 0.00 0.00 0.00 58 1011.5
20260901211554 67 213 1.7 7.0 0.00 0.00 0.00 60 1011.6
20260901210055 67 296 2.6 6.1 0.00 0.00 0.00 63 1011.6
20260901204550 67 242 3.5 7.0 0.00 0.00 0.00 63 1011.7
20260901203055 67 271 3.5 7.8 0.00 0.00 0.00 63 1011.7
20260901201555 67 276 3.5 7.8 0.00 0.00 0.00 62 1011.7
20260901200108 67 0 2.6 6.1 0.00 0.00 0.00 63 1011.8
20260901194604 66 267 2.6 6.1 0.00 0.00 0.00 64 1011.9
20260901193109 66 231 1.7 5.2 0.00 0.00 0.00 66 1012.1
20260901191607 66 287 2.6 5.2 0.00 0.00 0.00 66 1012.1
20260901190109 65 267 2.6 6.1 0.00 0.00 0.00 68 1012.3
20260901184554 64 223 2.6 6.1 0.00 0.00 0.00 69 1012.5
20260901183053 64 250 2.6 5.2 0.00 0.00 0.00 69 1012.4
20260901181601 64 220 0.9 5.2 0.00 0.00 0.00 71 1012.4
20260901180058 63 261 1.7 5.2 0.00 0.00 0.00 73 1012.6
20260901174554 63 275 1.7 6.1 0.00 0.00 0.00 74 1012.7
20260901173107 62 236 2.6 7.0 0.00 0.00 0.00 75 1012.6
20260901171605 61 168 2.6 7.8 0.00 0.00 0.00 76 1012.6
20260901170057 61 199 1.7 7.8 0.00 0.00 0.00 76 1012.5
20260901164557 61 238 3.5 8.7 0.00 0.00 0.00 75 1012.4
20260901163101 61 223 1.7 6.1 0.00 0.00 0.00 76 1012.3
20260901161559 61 254 2.6 7.0 0.00 0.00 0.00 76 1012.4
20260901160055 61 192 1.7 6.1 0.00 0.00 0.00 75 1012.3
20260901154557 61 222 4.3 7.8 0.00 0.00 0.00 75 1012.3
20260901153054 60 0 0.0 3.5 0.00 0.00 0.00 76 1012.3
20260901151559 60 0 0.0 0.0 0.00 0.00 0.00 76 1012.1
20260901144559 60 0 0.0 0.0 0.00 0.00 0.00 76 1012.0
20260901143110 60 0 0.0 1.7 0.00 0.00 0.00 76 1012.1
20260901141553 60 0 0.0 1.7 0.00 0.00 0.00 77 1012.0
20260901140059 59 0 0.0 3.5 0.00 0.00 0.00 77 1012.0
20260901134558 59 0 0.0 2.6 0.00 0.00 0.00 78 1012.0
20260901133053 59 0 0.0 0.0 0.00 0.00 0.00 78 1011.9
20260901131555 59 0 0.0 0.0 0.00 0.00 0.00 78 1011.9
20260901130058 59 0 0.0 0.0 0.00 0.00 0.00 78 1011.9
20260901124555 59 0 0.0 0.0 0.00 0.00 0.00 78 1011.8
20260901123118 59 0 0.0 1.7 0.00 0.00 0.00 79 1011.9
20260901121605 59 0 0.0 0.0 0.00 0.00 0.00 79 1011.9
20260901120101 58 0 0.0 5.2 0.00 0.00 0.00 79 1011.9
20260901114558 58 0 0.0 2.6 0.00 0.00 0.00 78 1011.8
20260901113104 59 0 0.0 1.7 0.00 0.00 0.00 78 1011.7
20260901111556 59 0 0.9 3.5 0.00 0.00 0.00 78 1011.8
20260901110050 59 153 1.7 4.3 0.00 0.00 0.00 77 1011.6
20260901104600 59 173 2.6 6.1 0.00 0.00 0.00 76 1011.6
20260901103100 59 182 1.7 5.2 0.00 0.00 0.00 76 1011.5
20260901101553 60 188 0.0 2.6 0.00 0.00 0.00 75 1011.4
20260901100113 60 0 1.7 4.3 0.00 0.00 0.00 74 1011.4
20260901094557 61 176 1.7 6.1 0.00 0.00 0.00 73 1011.3
20260901093102 61 0 0.0 3.5 0.00 0.00 0.00 73 1011.2
20260901091604 61 0 0.0 1.7 0.00 0.00 0.00 73 1011.0
20260901090056 62 180 1.7 3.5 0.00 0.00 0.00 71 1010.8
20260901084555 62 0 0.0 0.0 0.00 0.00 0.00 71 1010.7
20260901083105 62 153 0.0 3.5 0.00 0.00 0.00 69 1010.8
20260901081559 63 161 0.0 4.3 0.00 0.00 0.00 68 1010.8
20260901080100 63 170 0.9 7.8 0.00 0.00 0.00 67 1010.6
20260901074554 64 164 1.7 8.7 0.00 0.00 0.00 65 1010.5
20260901073055 65 188 1.7 6.1 0.00 0.00 0.00 65 1010.2
20260901071601 65 161 0.9 3.5 0.00 0.00 0.00 64 1010.0
20260901070104 66 0 0.9 5.2 0.00 0.00 0.00 63 1009.8
20260901064556 67 0 0.9 3.5 0.00 0.00 0.00 62 1009.5
20260901063046 67 169 1.7 5.2 0.00 0.00 0.00 61 1009.2
20260901061548 67 150 0.9 7.0 0.00 0.00 0.00 61 1009.2
20260901060056 68 0 0.0 3.5 0.00 0.00 0.00 60 1008.9
20260901054551 67 144 0.0 2.6 0.00 0.00 0.00 61 1008.6
20260901053109 67 162 0.9 3.5 0.00 0.00 0.00 61 1008.6
20260901051558 67 165 0.0 3.5 0.00 0.00 0.00 61 1008.5
20260901050052 68 0 0.0 0.0 0.00 0.00 0.00 61 1008.2
20260901044617 68 0 0.0 0.0 0.00 0.00 0.00 62 1007.9
20260901043056 68 0 0.0 0.0 0.00 0.00 0.00 60 1007.8
20260901041555 70 0 0.0 0.0 0.00 0.00 0.00 58 1007.8
20260901040104 71 0 0.0 0.0 0.00 0.00 0.00 56 1007.5
20260901034558 72 0 0.0 0.0 0.00 0.00 0.00 54 1007.2
20260901033055 75 0 0.0 3.5 0.00 0.00 0.00 51 1007.0
20260901031554 76 165 0.9 2.6 0.00 0.00 0.00 46 1007.1
20260901024547 79 0 0.0 1.7 0.00 0.00 0.00 42 1007.0
20260901023055 81 213 1.7 6.1 0.00 0.00 0.00 39 1006.9
20260901021557 82 184 0.9 4.3 0.00 0.00 0.00 39 1006.9
20260901020058 82 186 1.7 5.2 0.00 0.00 0.00 39 1006.8
20260901014556 83 233 3.5 7.8 0.00 0.00 0.00 38 1006.7
20260901013047 84 261 3.5 6.1 0.00 0.00 0.00 38 1006.7
20260901011604 84 236 0.9 2.6 0.00 0.00 0.00 36 1006.6
20260901010053 84 306 1.7 4.3 0.00 0.00 0.00 38 1006.5
20260901004603 84 81 0.9 4.3 0.00 0.00 0.00 36 1006.7
20260901003048 85 65 0.9 3.5 0.00 0.00 0.00 38 1006.6
20260901001555 85 352 1.7 4.3 0.00 0.00 0.00 36 1006.7
20260901000057 85 348 0.0 2.6 0.00 0.00 0.00 34 1006.7
20260831234550 87 317 2.6 5.2 0.00 0.00 0.00 34 1006.7
20260831233049 86 317 2.6 6.1 0.00 0.00 0.00 35 1006.8
20260831231602 86 262 2.6 7.0 0.00 0.00 0.00 35 1006.9
20260831230055 84 0 0.9 5.2 0.00 0.00 0.00 37 1007.0